Terminal Aerodrome Forecast
Issued by NWS Mt. Holly, NJ

Home | Current Version | Previous Version | Text Only | Print | Product List | Glossary On
Versions: 1 2 3 4 5 6 7 8 9 10 11 12 13 14 15
000
FTUS41 KPHI 201100
TAFACY
TAF
KACY 201134Z 2012/2112 VRB03KT P6SM OVC028
     FM201700 34006KT P6SM SCT030 OVC180
     FM210000 VRB02KT P6SM SCT030 BKN100=

USA.gov is the U.S. government's official web portal to all federal, state and local government web resources and services.